STARLINK-5623 (55405 NORAD) Tracking and Keplerian Element Data

This shows tracking and keplerian element data for the satellite.

Feedback or suggestion? Click here.




ElementValue
Catalog55405
NameSTARLINK-5623
Epoch Orbit1518
Epoch Day127.12912763
Epoch Year2023
RAAN181.349
Inclination70.0005
Eccentricity0.0003693
Argument of Perigee263.2749
Mean Anonmoly96.8026
Mean Motion15.69915201
Decay Rate-7.85E-06
L11 55405U 23014Q 23127.12912763 -.00000785 00000+0 -47561-5 0 9994
L22 55405 70.0005 181.3490 0003693 263.2749 96.8026 15.69915201 15188



Live tracking and technical data element details for STARLINK-5623 (NORAD 55405). STARLINK-5623 can be tracked NOW for your location showing map with azimuth and elevation plus other details from your city location.







IsCatalogInMostPopularTable: catalog: 55405, numindb: -1

Insert: records affected: 1


GetName: 55405 STARLINK-5623

Hit Count: inserted at: Mon, 05 Jun 2023 20:59:48 GMT